Weather History for KCMI - October, 2013

Change the Weather History Date:

Friday, October 11, 2013

  Actual Average Record
Temperature  
Mean Temperature 67 °F 55 °F  
Max Temperature 81 °F 67 °F 85 °F (2008)
Min Temperature 52 °F 43 °F 30 °F (2000)
Degree Days  
Heating Degree Days 0 10  
Month to date heating degree days 26 98  
Since 1 July heating degree days 69 190  
Cooling Degree Days 2 1  
Month to date cooling degree days 45 12  
Year to date cooling degree days 1067 937  
Growing Degree Days 16 (Base 50)    
Moisture  
Dew Point 53 °F    
Average Humidity 68    
Maximum Humidity 93    
Minimum Humidity 42    
Precipitation  
Precipitation 0.00 in 0.09 in 1.46 in (1949)
Month to date precipitation 1.57 1.09  
Year to date precipitation 26.33 31.65  
Sea Level Pressure  
Sea Level Pressure 30.03 in    
Wind  
Wind Speed 8 mph (SE)    
Max Wind Speed 18 mph    
Max Gust Speed 22 mph    
Visibility 10 miles    
Events      
T = Trace of Precipitation, MM = Missing Value Source: NWS Daily Summary

Daily Weather History Graph

Daily Weather History Graph

Search for Another Location

Airport or City:

Trip Planner

Search our weather history database for the weather conditions in past years. The results will help you decide how hot, cold, wet, or windy it might be!

Date:

Astronomy

Oct. 11, 2013 Rise Set
Actual Time 6:59 AM CDT 6:19 PM CDT
Civil Twilight 6:32 AM CDT 6:46 PM CDT
Nautical Twilight 6:01 AM CDT 7:17 PM CDT
Astronomical Twilight 5:29 AM CDT 7:49 PM CDT
Moon 1:41 PM CDT (10/11) No Moon Set
Length of Visible Light 12h 13m
Length of Day
11h 19m
Waxing Crescent, 47% of the Moon is Illuminated
Oct 11
Waxing Crescent
Oct 11
First Quarter
Oct 18
Full
Oct 26
Last Quarter
Nov 3
New

Hourly Weather History & Observations

Time (CDT) Temp. Dew Point Humidity Pressure Visibility Wind Dir Wind Speed Gust Speed Precip Events Conditions
12:53 AM 60.1 °F 54.0 °F 80% 30.05 in 10.0 mi SE 8.1 mph - N/A   Clear
1:53 AM 54.0 °F 51.1 °F 90% 30.05 in 10.0 mi ESE 6.9 mph - N/A   Clear
2:53 AM 54.0 °F 51.1 °F 90% 30.05 in 10.0 mi ESE 4.6 mph - N/A   Scattered Clouds
3:53 AM 53.1 °F 51.1 °F 93% 30.05 in 10.0 mi ESE 5.8 mph - N/A   Clear
4:53 AM 57.9 °F 53.1 °F 84% 30.06 in 10.0 mi SE 4.6 mph - N/A   Scattered Clouds
5:53 AM 57.0 °F 53.1 °F 87% 30.08 in 10.0 mi SE 4.6 mph - N/A   Mostly Cloudy
6:53 AM 55.9 °F 52.0 °F 87% 30.09 in 10.0 mi SE 5.8 mph - N/A   Scattered Clouds
7:53 AM 55.9 °F 53.1 °F 90% 30.08 in 10.0 mi ESE 5.8 mph - N/A   Clear
8:53 AM 64.0 °F 55.0 °F 73% 30.09 in 10.0 mi SE 8.1 mph - N/A   Clear
9:53 AM 70.0 °F 55.0 °F 59% 30.08 in 10.0 mi South 9.2 mph - N/A   Partly Cloudy
10:53 AM 73.9 °F 55.0 °F 52% 30.07 in 10.0 mi South 11.5 mph - N/A   Mostly Cloudy
11:53 AM 75.9 °F 55.0 °F 48% 30.06 in 10.0 mi South 8.1 mph - N/A   Scattered Clouds
12:53 PM 79.0 °F 55.0 °F 44% 30.03 in 10.0 mi South 11.5 mph 17.3 mph N/A   Scattered Clouds
1:53 PM 79.0 °F 54.0 °F 42% 30.01 in 10.0 mi SSE 8.1 mph - N/A   Mostly Cloudy
2:53 PM 78.1 °F 53.1 °F 42% 29.99 in 10.0 mi SSE 8.1 mph 19.6 mph N/A   Partly Cloudy
3:53 PM 79.0 °F 53.1 °F 40% 29.99 in 10.0 mi SSE 12.7 mph 21.9 mph N/A   Partly Cloudy
4:53 PM 78.1 °F 53.1 °F 42% 29.97 in 10.0 mi SE 10.4 mph 20.7 mph N/A   Clear
5:53 PM 73.9 °F 54.0 °F 50% 29.98 in 10.0 mi SE 9.2 mph - N/A   Clear
6:53 PM 69.1 °F 54.0 °F 58% 29.98 in 10.0 mi SE 8.1 mph - N/A   Clear
7:53 PM 63.0 °F 53.1 °F 70% 29.99 in 10.0 mi ESE 6.9 mph - N/A   Clear
8:53 PM 61.0 °F 53.1 °F 75% 29.99 in 10.0 mi ESE 8.1 mph - N/A   Clear
9:53 PM 60.1 °F 53.1 °F 78% 30.00 in 10.0 mi SE 6.9 mph - N/A   Clear
10:53 PM 60.1 °F 54.0 °F 80% 30.01 in 10.0 mi SSE 5.8 mph - N/A   Clear
11:53 PM 59.0 °F 54.0 °F 83% 30.01 in 10.0 mi SSE 6.9 mph - N/A   Clear